When you browse on this site, cookies collect data to enhance your experience and personalize the content and advertising you see.
Visit our Privacy Policy to learn more. By continuing to use the site, you agree to this use of cookies and data.
  • In United Kingdom
  • List of Countries
  • For 7 days
  • Water Temperature
  • Satellite Maps
  • Weather Map
  • Weather Widgets
  • user-avatar
    Login

    Hourly Weather Ghazni

    Today, 21 May, Tuesday

    Time Temperature Precipitation Wind Pressure Humidity
    00:00 +19°C° 0 mm 2 mps 589 mmHg 33%
    01:00 +18°C° 0 mm 2 mps 589 mmHg 35%
    02:00 +17°C° 0 mm 2 mps 589 mmHg 37%
    03:00 +17°C° 0 mm 2 mps 589 mmHg 39%
    04:00 +16°C° 0 mm 2 mps 588 mmHg 41%
    05:00 +16°C° 0 mm 2 mps 588 mmHg 43%
    06:00 +18°C° 0 mm 1 mps 588 mmHg 40%
    07:00 +19°C° 0 mm 1 mps 589 mmHg 37%
    08:00 +19°C° 0 mm 1 mps 590 mmHg 34%
    09:00 +20°C° 0 mm 1 mps 590 mmHg 31%
    10:00 +21°C° 0 mm 1 mps 590 mmHg 28%
    11:00 +22°C° 0 mm 1 mps 590 mmHg 28%
    12:00 +23°C° 0 mm 2 mps 590 mmHg 25%
    13:00 +24°C° 0 mm 2 mps 590 mmHg 23%
    14:00 +25°C° 0 mm 3 mps 590 mmHg 21%
    15:00 +24°C° 0 mm 3 mps 590 mmHg 21%
    16:00 +24°C° 0 mm 3 mps 590 mmHg 21%
    17:00 +23°C° 0 mm 4 mps 590 mmHg 21%
    18:00 +22°C° 0 mm 4 mps 590 mmHg 25%
    19:00 +21°C° 0 mm 4 mps 590 mmHg 29%
    20:00 +20°C° 0 mm 4 mps 590 mmHg 33%
    21:00 +20°C° 0 mm 4 mps 590 mmHg 35%
    22:00 +19°C° 0 mm 3 mps 589 mmHg 37%
    23:00 +19°C° 0 mm 2 mps 589 mmHg 39%

    Tomorrow, 22 May, Wednesday

    Time Temperature Precipitation Wind Pressure Humidity
    00:00 +18°C° 0 mm 2 mps 589 mmHg 41%
    01:00 +18°C° 0 mm 1 mps 589 mmHg 43%
    02:00 +16°C° 0 mm 0 mps 588 mmHg 45%
    03:00 +16°C° 0 mm 1 mps 588 mmHg 45%
    04:00 +16°C° 0 mm 1 mps 588 mmHg 46%
    05:00 +16°C° 0 mm 2 mps 587 mmHg 46%
    06:00 +16°C° 0 mm 2 mps 588 mmHg 44%
    07:00 +17°C° 0 mm 2 mps 588 mmHg 41%
    08:00 +18°C° 0 mm 2 mps 588 mmHg 39%
    09:00 +18°C° 0 mm 2 mps 588 mmHg 36%
    10:00 +19°C° 0 mm 2 mps 589 mmHg 34%
    11:00 +21°C° 0 mm 1 mps 589 mmHg 32%
    12:00 +21°C° 0.1 mm 3 mps 589 mmHg 30%
    13:00 +22°C° 0.1 mm 4 mps 589 mmHg 29%
    14:00 +23°C° 0.1 mm 5 mps 589 mmHg 27%
    15:00 +23°C° 0.2 mm 6 mps 589 mmHg 28%
    16:00 +23°C° 0.2 mm 6 mps 588 mmHg 29%
    17:00 +23°C° 0.2 mm 7 mps 588 mmHg 30%
    18:00 +22°C° 0 mm 5 mps 588 mmHg 32%
    19:00 +22°C° 0 mm 3 mps 588 mmHg 33%
    20:00 +21°C° 0 mm 2 mps 588 mmHg 34%
    21:00 +20°C° 0.3 mm 2 mps 588 mmHg 42%
    22:00 +18°C° 0.3 mm 3 mps 588 mmHg 51%
    23:00 +17°C° 0.3 mm 4 mps 587 mmHg 59%

    Day after tomorrow, 23 May, Thursday

    Time Temperature Precipitation Wind Pressure Humidity
    00:00 +17°C° 0.6 mm 3 mps 587 mmHg 61%
    01:00 +16°C° 0.6 mm 2 mps 586 mmHg 64%
    02:00 +16°C° 0.6 mm 1 mps 586 mmHg 66%
    03:00 +15°C° 0.5 mm 2 mps 585 mmHg 66%
    04:00 +15°C° 0.5 mm 2 mps 585 mmHg 67%
    05:00 +14°C° 0.5 mm 3 mps 585 mmHg 67%
    06:00 +14°C° 0 mm 3 mps 585 mmHg 63%
    07:00 +16°C° 0 mm 3 mps 585 mmHg 60%
    08:00 +16°C° 0 mm 3 mps 585 mmHg 57%
    09:00 +17°C° 0.1 mm 2 mps 586 mmHg 53%
    10:00 +18°C° 0.1 mm 2 mps 586 mmHg 49%
    11:00 +19°C° 0.1 mm 2 mps 586 mmHg 45%
    12:00 +20°C° 0.1 mm 3 mps 587 mmHg 41%
    13:00 +21°C° 0.1 mm 4 mps 587 mmHg 36%
    14:00 +23°C° 0.1 mm 5 mps 587 mmHg 32%
    15:00 +23°C° 0.1 mm 6 mps 587 mmHg 30%
    16:00 +23°C° 0.1 mm 7 mps 587 mmHg 28%
    17:00 +24°C° 0.1 mm 8 mps 587 mmHg 26%
    18:00 +23°C° 0 mm 7 mps 587 mmHg 29%
    19:00 +22°C° 0 mm 6 mps 587 mmHg 32%
    20:00 +21°C° 0 mm 5 mps 586 mmHg 35%
    21:00 +20°C° 0 mm 4 mps 586 mmHg 36%
    22:00 +19°C° 0 mm 4 mps 586 mmHg 38%
    23:00 +18°C° 0 mm 3 mps 586 mmHg 39%

    24 May, Friday

    Time Temperature Precipitation Wind Pressure Humidity
    00:00 +18°C° 0 mm 3 mps 586 mmHg 41%
    01:00 +17°C° 0 mm 3 mps 586 mmHg 43%
    02:00 +17°C° 0 mm 3 mps 585 mmHg 44%
    03:00 +16°C° 0 mm 2 mps 585 mmHg 46%
    04:00 +15°C° 0 mm 2 mps 585 mmHg 48%
    05:00 +15°C° 0 mm 2 mps 584 mmHg 49%
    06:00 +16°C° 0 mm 2 mps 585 mmHg 45%
    07:00 +17°C° 0 mm 3 mps 586 mmHg 40%
    08:00 +18°C° 0 mm 4 mps 586 mmHg 36%
    09:00 +19°C° 0 mm 4 mps 587 mmHg 33%
    10:00 +20°C° 0 mm 5 mps 587 mmHg 29%
    11:00 +21°C° 0 mm 5 mps 588 mmHg 26%
    12:00 +22°C° 0 mm 5 mps 588 mmHg 23%
    13:00 +23°C° 0 mm 5 mps 588 mmHg 21%
    14:00 +24°C° 0 mm 6 mps 588 mmHg 19%
    15:00 +24°C° 0 mm 6 mps 588 mmHg 18%
    16:00 +26°C° 0 mm 5 mps 588 mmHg 17%
    17:00 +26°C° 0 mm 5 mps 588 mmHg 16%
    18:00 +25°C° 0 mm 5 mps 588 mmHg 18%
    19:00 +23°C° 0 mm 5 mps 588 mmHg 21%
    20:00 +22°C° 0 mm 5 mps 588 mmHg 23%
    21:00 +21°C° 0 mm 4 mps 588 mmHg 26%
    22:00 +20°C° 0 mm 3 mps 588 mmHg 28%
    23:00 +19°C° 0 mm 3 mps 588 mmHg 30%

    25 May, Saturday

    Time Temperature Precipitation Wind Pressure Humidity
    00:00 +18°C° 0 mm 3 mps 588 mmHg 33%
    01:00 +18°C° 0 mm 2 mps 587 mmHg 35%
    02:00 +17°C° 0 mm 2 mps 587 mmHg 38%
    03:00 +16°C° 0 mm 2 mps 587 mmHg 40%
    04:00 +16°C° 0 mm 2 mps 586 mmHg 42%
    05:00 +15°C° 0 mm 2 mps 586 mmHg 45%
    06:00 +16°C° 0 mm 1 mps 587 mmHg 41%
    07:00 +18°C° 0 mm 1 mps 588 mmHg 37%
    08:00 +19°C° 0 mm 1 mps 588 mmHg 34%
    09:00 +20°C° 0 mm 1 mps 588 mmHg 29%
    10:00 +21°C° 0 mm 1 mps 589 mmHg 25%
    11:00 +22°C° 0 mm 1 mps 589 mmHg 21%
    12:00 +23°C° 0 mm 1 mps 589 mmHg 19%
    13:00 +24°C° 0 mm 2 mps 589 mmHg 17%
    14:00 +26°C° 0 mm 2 mps 589 mmHg 15%
    15:00 +26°C° 0 mm 3 mps 589 mmHg 14%
    16:00 +26°C° 0 mm 4 mps 589 mmHg 14%
    17:00 +27°C° 0 mm 5 mps 588 mmHg 13%
    18:00 +26°C° 0 mm 5 mps 588 mmHg 15%
    19:00 +23°C° 0 mm 6 mps 588 mmHg 16%
    20:00 +22°C° 0 mm 7 mps 588 mmHg 18%
    21:00 +21°C° 0 mm 6 mps 588 mmHg 23%
    22:00 +20°C° 0 mm 5 mps 588 mmHg 29%
    23:00 +18°C° 0 mm 4 mps 587 mmHg 34%

    26 May, Sunday

    Time Temperature Precipitation Wind Pressure Humidity
    00:00 +18°C° 0 mm 4 mps 587 mmHg 36%
    01:00 +17°C° 0 mm 4 mps 586 mmHg 38%
    02:00 +15°C° 0 mm 4 mps 586 mmHg 40%
    03:00 +14°C° 0 mm 4 mps 586 mmHg 41%
    04:00 +14°C° 0 mm 4 mps 586 mmHg 43%
    05:00 +13°C° 0 mm 4 mps 585 mmHg 44%
    06:00 +13°C° 0 mm 5 mps 586 mmHg 39%
    07:00 +14°C° 0 mm 6 mps 586 mmHg 34%
    08:00 +14°C° 0 mm 6 mps 587 mmHg 30%
    09:00 +15°C° 0 mm 6 mps 587 mmHg 25%
    10:00 +17°C° 0 mm 6 mps 588 mmHg 20%
    11:00 +19°C° 0 mm 6 mps 588 mmHg 15%
    12:00 +20°C° 0 mm 6 mps 588 mmHg 14%
    13:00 +21°C° 0 mm 6 mps 588 mmHg 12%
    14:00 +22°C° 0 mm 6 mps 588 mmHg 11%
    15:00 +22°C° 0 mm 7 mps 588 mmHg 11%
    16:00 +22°C° 0 mm 8 mps 588 mmHg 11%
    17:00 +22°C° 0 mm 8 mps 588 mmHg 11%
    18:00 +21°C° 0 mm 7 mps 588 mmHg 13%
    19:00 +20°C° 0 mm 7 mps 588 mmHg 16%
    20:00 +17°C° 0 mm 6 mps 588 mmHg 18%
    21:00 +17°C° 0 mm 5 mps 587 mmHg 20%
    22:00 +17°C° 0 mm 4 mps 587 mmHg 22%
    23:00 +16°C° 0 mm 3 mps 587 mmHg 25%
    Show more